Hourly Data Report for April 15, 2017

All times are specified in Local Standard Time (LST). Add 1 hour to adjust for Daylight Saving Time where and when it is observed.

TORONTO CITY
ONTARIO

43°40'00.000" N
79°24'00.000" W
112.50 m
6158355
71508
XTO

Download Data

Hourly Data (April 2017)
Hourly Data Report for April 15, 2017
TIME Temp Definition
°C
Dew Point Definition
°C
Rel Hum Definition
%
Wind Dir Definition
10's deg

Wind Spd Definition
km/h
Visibility Definition
km
Stn Press Definition
kPa
Hmdx Definition


Wind Chill Definition


Weather Definition


00:00 8.8 -5.3 37 LegendMM LegendMM   101.19     LegendNANA
01:00 8.3 -4.9 39 LegendMM LegendMM   101.09     LegendNANA
02:00 9.4 -6.8 31 LegendMM LegendMM   100.99     LegendNANA
03:00 9.3 -5.8 34 LegendMM LegendMM   100.89     LegendNANA
04:00 8.7 -4.8 38 LegendMM LegendMM   100.83     LegendNANA
05:00 8.1 -4.2 42 LegendMM LegendMM   100.79     LegendNANA
06:00 7.9 -3.4 45 LegendMM LegendMM   100.77     LegendNANA
07:00 8.2 -3.0 45 LegendMM LegendMM   100.76     LegendNANA
08:00 8.6 -1.9 47 LegendMM LegendMM   100.72     LegendNANA
09:00 8.6 1.0 59 LegendMM LegendMM   100.67     LegendNANA
10:00 7.3 3.4 76 LegendMM LegendMM   100.60     LegendNANA
11:00 7.4 6.0 91 LegendMM LegendMM   100.54     LegendNANA
12:00 5.8 4.5 91 LegendMM LegendMM   100.41     LegendNANA
13:00 6.5 3.9 84 LegendMM LegendMM   100.33     LegendNANA
14:00 10.3 5.5 72 LegendMM LegendMM   100.17     LegendNANA
15:00 14.2 7.8 65 LegendMM LegendMM   100.02     LegendNANA
16:00 14.9 8.2 64 LegendMM LegendMM   99.93     LegendNANA
17:00 14.0 8.1 67 LegendMM LegendMM   99.89     LegendNANA
18:00 13.8 8.1 69 LegendMM LegendMM   99.82     LegendNANA
19:00 13.9 8.4 69 LegendMM LegendMM   99.75     LegendNANA
20:00 14.8 9.2 69 LegendMM LegendMM   99.71     LegendNANA
21:00 14.7 9.5 71 LegendMM LegendMM   99.73     LegendNANA
22:00 14.9 9.3 70 LegendMM LegendMM   99.72     LegendNANA
23:00 16.2 9.9 66 LegendMM LegendMM   99.69     LegendNANA

Notes on Data Quality.

Legend

  • E = Estimated
  • M = Missing
  • NA = Not Available
Date modified: